• In Hungary
  • List of Countries
  • For 7 days
  • Water Temperature
  • Satellite Maps
  • Weather Map
  • News
  • Weather Widgets
  • user-avatar
    Login

    Hourly Weather Kongola

    Today, 24 November, Friday

    Time Temperature Precipitation Wind Pressure Humidity
    00:00 +27°C° 0 mm 1 mps 677 mmHg 42%
    01:00 +27°C° 0 mm 1 mps 677 mmHg 44%
    02:00 +26°C° 0 mm 1 mps 677 mmHg 47%
    03:00 +25°C° 0 mm 1 mps 677 mmHg 50%
    04:00 +25°C° 0 mm 1 mps 677 mmHg 53%
    05:00 +25°C° 0 mm 1 mps 677 mmHg 56%
    06:00 +26°C° 0.1 mm 1 mps 678 mmHg 54%
    07:00 +27°C° 0.1 mm 1 mps 678 mmHg 51%
    08:00 +29°C° 0.1 mm 1 mps 679 mmHg 49%
    09:00 +32°C° 0 mm 1 mps 679 mmHg 41%
    10:00 +35°C° 0 mm 1 mps 680 mmHg 34%
    11:00 +36°C° 0 mm 0 mps 680 mmHg 27%
    12:00 +36°C° 0 mm 0 mps 679 mmHg 27%
    13:00 +36°C° 0 mm 0 mps 679 mmHg 27%
    14:00 +36°C° 0 mm 0 mps 678 mmHg 26%
    15:00 +35°C° 0 mm 0 mps 678 mmHg 27%
    16:00 +36°C° 0 mm 1 mps 677 mmHg 27%
    17:00 +35°C° 0 mm 1 mps 677 mmHg 28%
    18:00 +34°C° 0 mm 1 mps 677 mmHg 32%
    19:00 +32°C° 0 mm 1 mps 677 mmHg 36%
    20:00 +31°C° 0 mm 2 mps 676 mmHg 40%
    21:00 +30°C° 0.1 mm 1 mps 677 mmHg 43%
    22:00 +29°C° 0.1 mm 1 mps 677 mmHg 45%
    23:00 +28°C° 0.1 mm 1 mps 677 mmHg 48%

    Tomorrow, 25 November, Saturday

    Time Temperature Precipitation Wind Pressure Humidity
    00:00 +28°C° 0.2 mm 1 mps 677 mmHg 51%
    01:00 +27°C° 0.2 mm 1 mps 676 mmHg 55%
    02:00 +26°C° 0.2 mm 2 mps 676 mmHg 58%
    03:00 +26°C° 0 mm 2 mps 676 mmHg 61%
    04:00 +25°C° 0 mm 2 mps 676 mmHg 63%
    05:00 +25°C° 0 mm 2 mps 676 mmHg 66%
    06:00 +26°C° 0 mm 2 mps 676 mmHg 62%
    07:00 +28°C° 0 mm 2 mps 677 mmHg 58%
    08:00 +29°C° 0 mm 3 mps 677 mmHg 54%
    09:00 +31°C° 0 mm 3 mps 678 mmHg 46%
    10:00 +35°C° 0 mm 3 mps 678 mmHg 38%
    11:00 +37°C° 0 mm 3 mps 678 mmHg 30%
    12:00 +37°C° 0 mm 2 mps 677 mmHg 29%
    13:00 +37°C° 0 mm 2 mps 677 mmHg 29%
    14:00 +36°C° 0 mm 1 mps 676 mmHg 29%
    15:00 +35°C° 0.1 mm 1 mps 675 mmHg 30%
    16:00 +35°C° 0.1 mm 1 mps 675 mmHg 32%
    17:00 +34°C° 0.1 mm 1 mps 674 mmHg 34%
    18:00 +33°C° 0 mm 1 mps 674 mmHg 38%
    19:00 +31°C° 0 mm 2 mps 675 mmHg 42%
    20:00 +30°C° 0 mm 2 mps 675 mmHg 45%
    21:00 +29°C° 0 mm 2 mps 675 mmHg 49%
    22:00 +28°C° 0 mm 3 mps 675 mmHg 52%
    23:00 +27°C° 0 mm 3 mps 675 mmHg 55%

    Day after tomorrow, 26 November, Sunday

    Time Temperature Precipitation Wind Pressure Humidity
    00:00 +27°C° 0 mm 3 mps 675 mmHg 56%
    01:00 +27°C° 0 mm 3 mps 674 mmHg 57%
    02:00 +26°C° 0 mm 3 mps 674 mmHg 58%
    03:00 +26°C° 0.1 mm 2 mps 674 mmHg 60%
    04:00 +26°C° 0.1 mm 2 mps 674 mmHg 62%
    05:00 +25°C° 0.1 mm 2 mps 674 mmHg 64%
    06:00 +26°C° 0.4 mm 2 mps 675 mmHg 63%
    07:00 +26°C° 0.4 mm 2 mps 676 mmHg 63%
    08:00 +27°C° 0.4 mm 2 mps 677 mmHg 63%
    09:00 +29°C° 0 mm 2 mps 677 mmHg 54%
    10:00 +32°C° 0 mm 2 mps 678 mmHg 45%
    11:00 +36°C° 0 mm 2 mps 678 mmHg 35%
    12:00 +37°C° 0 mm 2 mps 678 mmHg 32%
    13:00 +38°C° 0 mm 2 mps 677 mmHg 28%
    14:00 +39°C° 0 mm 2 mps 676 mmHg 25%
    15:00 +38°C° 0 mm 2 mps 676 mmHg 27%
    16:00 +37°C° 0 mm 2 mps 675 mmHg 29%
    17:00 +35°C° 0 mm 1 mps 675 mmHg 32%
    18:00 +33°C° 0 mm 1 mps 675 mmHg 35%
    19:00 +32°C° 0 mm 1 mps 675 mmHg 38%
    20:00 +30°C° 0 mm 1 mps 675 mmHg 41%
    21:00 +30°C° 0 mm 2 mps 676 mmHg 44%
    22:00 +30°C° 0 mm 2 mps 676 mmHg 47%
    23:00 +29°C° 0 mm 2 mps 676 mmHg 49%

    27 November, Monday

    Time Temperature Precipitation Wind Pressure Humidity
    00:00 +28°C° 0.6 mm 2 mps 676 mmHg 57%
    01:00 +26°C° 0.6 mm 2 mps 676 mmHg 64%
    02:00 +25°C° 0.6 mm 2 mps 676 mmHg 71%
    03:00 +24°C° 2.1 mm 2 mps 676 mmHg 76%
    04:00 +24°C° 2.1 mm 2 mps 676 mmHg 80%
    05:00 +23°C° 2.1 mm 2 mps 676 mmHg 84%
    06:00 +24°C° 0.4 mm 2 mps 677 mmHg 82%
    07:00 +24°C° 0.4 mm 3 mps 678 mmHg 80%
    08:00 +24°C° 0.4 mm 3 mps 678 mmHg 78%
    09:00 +27°C° 0 mm 3 mps 678 mmHg 68%
    10:00 +29°C° 0 mm 3 mps 679 mmHg 58%
    11:00 +31°C° 0 mm 3 mps 679 mmHg 49%
    12:00 +32°C° 0 mm 2 mps 678 mmHg 45%
    13:00 +34°C° 0 mm 2 mps 678 mmHg 41%
    14:00 +34°C° 0 mm 2 mps 677 mmHg 37%
    15:00 +34°C° 0 mm 2 mps 677 mmHg 36%
    16:00 +33°C° 0 mm 1 mps 677 mmHg 36%
    17:00 +33°C° 0 mm 1 mps 676 mmHg 35%
    18:00 +32°C° 0 mm 1 mps 676 mmHg 39%
    19:00 +30°C° 0 mm 1 mps 677 mmHg 43%
    20:00 +29°C° 0 mm 1 mps 677 mmHg 47%
    21:00 +28°C° 0 mm 1 mps 677 mmHg 50%
    22:00 +28°C° 0 mm 1 mps 677 mmHg 52%
    23:00 +27°C° 0 mm 1 mps 677 mmHg 54%

    28 November, Tuesday

    Time Temperature Precipitation Wind Pressure Humidity
    00:00 +26°C° 0 mm 1 mps 677 mmHg 56%
    01:00 +26°C° 0 mm 1 mps 677 mmHg 57%
    02:00 +25°C° 0 mm 1 mps 676 mmHg 59%
    03:00 +25°C° 0 mm 1 mps 677 mmHg 62%
    04:00 +24°C° 0 mm 1 mps 677 mmHg 65%
    05:00 +24°C° 0 mm 1 mps 677 mmHg 68%
    06:00 +25°C° 0 mm 2 mps 677 mmHg 64%
    07:00 +27°C° 0 mm 2 mps 678 mmHg 60%
    08:00 +28°C° 0 mm 3 mps 679 mmHg 57%
    09:00 +30°C° 0 mm 2 mps 679 mmHg 50%
    10:00 +32°C° 0 mm 2 mps 679 mmHg 43%
    11:00 +36°C° 0 mm 2 mps 679 mmHg 36%
    12:00 +36°C° 0 mm 2 mps 679 mmHg 34%
    13:00 +36°C° 0 mm 2 mps 678 mmHg 32%
    14:00 +36°C° 0 mm 2 mps 677 mmHg 31%
    15:00 +35°C° 0 mm 2 mps 677 mmHg 31%
    16:00 +35°C° 0 mm 2 mps 677 mmHg 31%
    17:00 +35°C° 0 mm 2 mps 676 mmHg 32%
    18:00 +32°C° 0 mm 2 mps 677 mmHg 35%
    19:00 +31°C° 0 mm 2 mps 677 mmHg 38%
    20:00 +30°C° 0 mm 1 mps 677 mmHg 41%
    21:00 +29°C° 0 mm 2 mps 678 mmHg 42%
    22:00 +29°C° 0 mm 2 mps 678 mmHg 44%
    23:00 +28°C° 0 mm 2 mps 678 mmHg 45%

    29 November, Wednesday

    Time Temperature Precipitation Wind Pressure Humidity
    00:00 +27°C° 0 mm 2 mps 678 mmHg 49%
    01:00 +27°C° 0 mm 3 mps 678 mmHg 52%
    02:00 +26°C° 0 mm 3 mps 677 mmHg 55%
    03:00 +25°C° 0 mm 3 mps 677 mmHg 60%
    04:00 +24°C° 0 mm 3 mps 677 mmHg 64%
    05:00 +24°C° 0 mm 2 mps 677 mmHg 68%
    06:00 +25°C° 0 mm 3 mps 678 mmHg 64%
    07:00 +26°C° 0 mm 4 mps 679 mmHg 60%
    08:00 +27°C° 0 mm 4 mps 679 mmHg 55%
    09:00 +29°C° 0 mm 4 mps 680 mmHg 46%
    10:00 +32°C° 0 mm 4 mps 680 mmHg 37%
    11:00 +35°C° 0 mm 3 mps 680 mmHg 28%
    12:00 +36°C° 0 mm 4 mps 679 mmHg 25%
    13:00 +37°C° 0 mm 4 mps 678 mmHg 22%
    14:00 +38°C° 0 mm 4 mps 678 mmHg 19%
    15:00 +38°C° 0 mm 4 mps 677 mmHg 19%
    16:00 +38°C° 0 mm 4 mps 677 mmHg 19%
    17:00 +37°C° 0 mm 4 mps 676 mmHg 18%
    18:00 +35°C° 0 mm 3 mps 676 mmHg 21%
    19:00 +33°C° 0 mm 3 mps 676 mmHg 25%
    20:00 +30°C° 0 mm 2 mps 677 mmHg 28%
    21:00 +29°C° 0 mm 2 mps 677 mmHg 30%
    22:00 +29°C° 0 mm 3 mps 677 mmHg 33%
    23:00 +28°C° 0 mm 3 mps 678 mmHg 35%
    Show more